Weather History for Weslaco, TX

Change the Weather History Date:

Wednesday, March 20, 2013

  Actual Average (KMFE) Record (KMFE)
Temperature  
Mean Temperature 70 °F 72 °F  
Max Temperature 77 °F 83 °F 98 °F (2006)
Min Temperature 64 °F 61 °F 36 °F (1902)
Degree Days  
Heating Degree Days 0 1  
Month to date heating degree days 31  
Since 1 July heating degree days 564  
Cooling Degree Days 6 7  
Month to date cooling degree days 123  
Year to date cooling degree days 282  
Growing Degree Days 20 (Base 50)    
Moisture  
Dew Point 60 °F    
Average Humidity 69    
Maximum Humidity 84    
Minimum Humidity 49    
Precipitation  
Precipitation 0.00 in 0.03 in 0.04 in (1949)
Month to date precipitation 0.65  
Year to date precipitation 2.81  
Sea Level Pressure  
Sea Level Pressure 30.00 in    
Wind  
Wind Speed 10 mph (ENE)    
Max Wind Speed 24 mph    
Max Gust Speed 33 mph    
Visibility 9 miles    
Events      
T = Trace of Precipitation, MM = Missing Value Source: NWS Daily Summary

Daily Weather History Graph

Daily Weather History Graph

Search for Another Location

Airport:

Trip Planner

Search our weather history database for the weather conditions in past years. The results will help you decide how hot, cold, wet, or windy it might be!

Date:

Astronomy

Mar. 20, 2013 Rise Set
Actual Time 7:35 AM CDT 7:43 PM CDT
Civil Twilight 7:12 AM CDT 8:06 PM CDT
Nautical Twilight 6:45 AM CDT 8:33 PM CDT
Astronomical Twilight 6:18 AM CDT 9:00 PM CDT
Moon 1:49 PM CDT (3/20) 2:45 AM CDT (3/20)
Length of Visible Light 12h 53m
Length of Day
12h 07m
First Quarter, 59% of the Moon is Illuminated
Mar 20
First Quarter
Mar 27
Full
Apr 2
Last Quarter
Apr 10
New
Apr 18
First Quarter

Hourly Weather History & Observations

Time (CDT) Temp. Dew Point Humidity Pressure Visibility Wind Dir Wind Speed Gust Speed Precip Events Conditions
12:15 AM 72.7 °F 64.6 °F 76% 29.84 in 10.0 mi Calm Calm - N/A   Clear
12:35 AM 71.6 °F 64.0 °F 77% 29.84 in 10.0 mi East 3.5 mph - N/A   Clear
12:55 AM 71.1 °F 64.4 °F 79% 29.85 in 10.0 mi East 3.5 mph - N/A   Mostly Cloudy
1:15 AM 72.0 °F 64.8 °F 78% 29.84 in 10.0 mi ESE 4.6 mph - N/A   Overcast
1:35 AM 72.5 °F 65.7 °F 79% 29.84 in 10.0 mi ESE 8.1 mph - N/A   Overcast
1:55 AM 72.5 °F 66.2 °F 81% 29.83 in 10.0 mi ESE 8.1 mph - N/A   Overcast
2:15 AM 72.5 °F 66.4 °F 81% 29.85 in 7.0 mi East 5.8 mph - N/A   Overcast
2:35 AM 72.5 °F 66.4 °F 81% 29.85 in 7.0 mi East 6.9 mph - N/A   Overcast
2:55 AM 72.7 °F 66.2 °F 80% 29.85 in 10.0 mi East 6.9 mph - N/A   Overcast
3:15 AM 72.7 °F 66.2 °F 80% 29.84 in 10.0 mi East 6.9 mph - N/A   Overcast
3:35 AM 72.5 °F 66.2 °F 81% 29.83 in 7.0 mi East 9.2 mph - N/A   Overcast
3:55 AM 72.1 °F 66.2 °F 82% 29.82 in 7.0 mi ENE 8.1 mph - N/A   Overcast
4:15 AM 72.1 °F 66.4 °F 82% 29.83 in 7.0 mi ENE 6.9 mph - N/A   Overcast
4:35 AM 72.5 °F 66.6 °F 82% 29.83 in 7.0 mi ENE 8.1 mph - N/A   Overcast
4:55 AM 72.9 °F 66.9 °F 82% 29.86 in 7.0 mi NE 9.2 mph - N/A   Overcast
5:15 AM 72.9 °F 66.7 °F 81% 29.87 in 7.0 mi NNE 11.5 mph 17.3 mph N/A   Overcast
5:35 AM 72.5 °F 66.6 °F 82% 29.88 in 7.0 mi NE 10.4 mph - N/A   Overcast
5:55 AM 72.7 °F 66.7 °F 82% 29.90 in 7.0 mi NNE 10.4 mph - N/A   Overcast
6:15 AM 72.5 °F 66.6 °F 82% 29.91 in 7.0 mi NE 13.8 mph 17.3 mph N/A   Overcast
6:35 AM 72.5 °F 66.6 °F 82% 29.93 in 7.0 mi NE 12.7 mph - N/A   Overcast
6:55 AM 72.5 °F 66.6 °F 82% 29.95 in 7.0 mi NE 9.2 mph 17.3 mph N/A   Overcast
7:15 AM 72.7 °F 66.6 °F 81% 29.96 in 7.0 mi NE 10.4 mph 17.3 mph N/A   Overcast
7:35 AM 72.5 °F 66.4 °F 81% 29.97 in 7.0 mi NE 13.8 mph - N/A   Overcast
7:55 AM 72.5 °F 66.2 °F 81% 29.99 in 7.0 mi NE 11.5 mph - N/A   Overcast
8:15 AM 72.5 °F 66.4 °F 81% 30.00 in 7.0 mi NE 12.7 mph 18.4 mph N/A   Overcast
8:35 AM 71.8 °F 66.2 °F 83% 30.01 in 7.0 mi NE 12.7 mph 18.4 mph N/A   Overcast
8:55 AM 71.6 °F 66.2 °F 83% 30.02 in 5.0 mi NE 17.3 mph 20.7 mph N/A   Haze
9:15 AM 71.4 °F 65.7 °F 82% 30.03 in 5.0 mi NE 17.3 mph 24.2 mph N/A   Haze
9:35 AM 69.8 °F 64.6 °F 83% 30.05 in 5.0 mi NE 20.7 mph 27.6 mph N/A   Haze
9:55 AM 68.2 °F 63.1 °F 84% 30.06 in 5.0 mi NE 23.0 mph 29.9 mph N/A   Haze
10:15 AM 67.5 °F 61.3 °F 81% 30.08 in 5.0 mi NE 24.2 mph 31.1 mph N/A   Haze
10:55 AM 68.4 °F 57.7 °F 69% 30.10 in 10.0 mi NE 18.4 mph 26.5 mph N/A   Overcast
11:15 AM 68.2 °F 54.7 °F 62% 30.11 in 10.0 mi NE 18.4 mph 33.4 mph N/A   Overcast
11:35 AM 68.7 °F 54.5 °F 60% 30.11 in 10.0 mi NE 16.1 mph 23.0 mph N/A   Overcast
11:55 AM 71.1 °F 54.5 °F 56% 30.11 in 10.0 mi NE 19.6 mph 27.6 mph N/A   Overcast
12:15 PM 70.7 °F 54.7 °F 57% 30.12 in 10.0 mi NE 18.4 mph 28.8 mph N/A   Overcast
12:35 PM 71.1 °F 55.8 °F 58% 30.11 in 10.0 mi NE 13.8 mph 23.0 mph N/A   Overcast
12:55 PM 74.5 °F 57.9 °F 56% 30.10 in 10.0 mi NE 16.1 mph 21.9 mph N/A   Mostly Cloudy
1:15 PM 74.3 °F 58.3 °F 57% 30.10 in 10.0 mi NE 15.0 mph - N/A   Scattered Clouds
1:35 PM 76.5 °F 58.3 °F 53% 30.09 in 10.0 mi NE 17.3 mph 24.2 mph N/A   Mostly Cloudy
1:55 PM 77.2 °F 58.3 °F 52% 30.09 in 10.0 mi ENE 18.4 mph 24.2 mph N/A   Overcast
2:15 PM 77.5 °F 58.1 °F 51% 30.08 in 10.0 mi ENE 17.3 mph 25.3 mph N/A   Overcast
2:35 PM 77.4 °F 57.4 °F 50% 30.07 in 10.0 mi NE 20.7 mph 28.8 mph N/A   Overcast
2:55 PM 76.3 °F 57.2 °F 52% 30.06 in 10.0 mi ENE 20.7 mph 27.6 mph N/A   Overcast
3:15 PM 77.2 °F 57.4 °F 50% 30.06 in 10.0 mi NE 19.6 mph 26.5 mph N/A   Overcast
3:35 PM 75.2 °F 57.2 °F 53% 30.05 in 10.0 mi ENE 19.6 mph 26.5 mph N/A   Overcast
3:55 PM 74.7 °F 57.2 °F 54% 30.05 in 10.0 mi NE 20.7 mph 26.5 mph N/A   Overcast
4:15 PM 75.9 °F 57.2 °F 52% 30.04 in 10.0 mi NE 16.1 mph 25.3 mph N/A   Overcast
4:35 PM 75.9 °F 56.7 °F 51% 30.04 in 10.0 mi ENE 13.8 mph 24.2 mph N/A   Overcast
4:55 PM 75.7 °F 55.8 °F 50% 30.04 in 10.0 mi ENE 17.3 mph 25.3 mph N/A   Overcast
5:15 PM 75.2 °F 54.9 °F 49% 30.04 in 10.0 mi ENE 15.0 mph 23.0 mph N/A   Overcast
5:35 PM 74.5 °F 56.3 °F 53% 30.05 in 10.0 mi NE 19.6 mph 25.3 mph N/A   Overcast
5:55 PM 72.5 °F 56.3 °F 57% 30.05 in 10.0 mi ENE 12.7 mph 24.2 mph N/A   Overcast
6:15 PM 71.1 °F 56.1 °F 59% 30.06 in 10.0 mi ENE 17.3 mph 23.0 mph N/A   Overcast
6:35 PM 70.3 °F 55.6 °F 59% 30.06 in 10.0 mi ENE 17.3 mph 23.0 mph N/A   Overcast
6:55 PM 69.8 °F 55.4 °F 60% 30.06 in 10.0 mi ENE 15.0 mph 20.7 mph N/A   Overcast
7:15 PM 68.9 °F 54.7 °F 60% 30.06 in 10.0 mi ENE 13.8 mph 21.9 mph N/A   Overcast
7:35 PM 68.9 °F 53.8 °F 58% 30.06 in 10.0 mi East 15.0 mph 21.9 mph N/A   Overcast
7:55 PM 68.5 °F 54.0 °F 60% 30.06 in 10.0 mi ENE 12.7 mph 21.9 mph N/A   Overcast
8:15 PM 68.2 °F 54.5 °F 62% 30.06 in 10.0 mi ENE 12.7 mph 19.6 mph N/A   Overcast
8:35 PM 67.5 °F 55.0 °F 64% 30.06 in 10.0 mi ENE 11.5 mph 16.1 mph N/A   Overcast
8:55 PM 66.9 °F 55.0 °F 66% 30.07 in 10.0 mi ENE 9.2 mph - N/A   Overcast
9:15 PM 66.9 °F 55.4 °F 66% 30.07 in 10.0 mi ENE 8.1 mph - N/A   Overcast
9:35 PM 66.2 °F 55.2 °F 68% 30.08 in 10.0 mi East 6.9 mph - N/A   Overcast
9:55 PM 65.8 °F 55.4 °F 69% 30.08 in 10.0 mi ENE 5.8 mph - N/A   Overcast
10:15 PM 65.5 °F 55.0 °F 69% 30.07 in 10.0 mi Calm Calm - N/A   Overcast
10:35 PM 65.1 °F 54.7 °F 69% 30.07 in 10.0 mi East 3.5 mph - N/A   Overcast
10:55 PM 65.3 °F 54.5 °F 68% 30.06 in 10.0 mi East 3.5 mph - N/A   Overcast
11:15 PM 64.9 °F 54.5 °F 69% 30.07 in 10.0 mi Calm Calm - N/A   Overcast
11:35 PM 64.4 °F 54.1 °F 69% 30.06 in 10.0 mi Calm Calm - N/A   Overcast
11:55 PM 64.6 °F 54.3 °F 69% 30.06 in 10.0 mi SE 3.5 mph - N/A   Overcast